Starlink 1262

operational
NORAD ID: 45366 Int'l Des: 2020-019 Owner: SPXS Country: US Constellation: starlink
LEOCIRCULARSTARLINK_TYPE

Über Starlink 1262

Beschreibung wird geladen...

Live-Position

3D-Globus wird geladen...

Nächste Überflüge

Höhenverlauf

Altitude vs Time

uPlot chart will show altitude changes over time

Zweizeiliger Elementsatz

1 45366U 20019G 25304.64729231 .00009144 00000-0 63159-3 0 9999
2 45366 53.0559 25.9066 0001630 107.7807 252.3359 15.06421042310289
Epoch: 31. Okt. 2025 • Age: 16 hours

Aktueller Status

Höhe 549.3 km
Geschwindigkeit 7.59 km/s
Subsatellitenpunkt 38.69°N, 4.76°E
Startdatum 18. März 2020
Alter 5.6 years
Typ internet

Technische Details

Klassifizierung Payload
Masse 260.00 kg
Trockenmasse 248.00 kg
Gesamtmasse 260.00 kg
Länge 0.20 m
Durchmesser 2.80 m
Spannweite 9.00 m
Form Box + pan
Hersteller SPXS
Bus-Typ Starlink
Phasenstatus In Orbit
Besitzer/Staat SPXS/US

Große Konstellationen

Loading constellations...